#timestamp,LO_Frequency,Hit,StdDev 
1510657215.6,286047016.6,N
1510657235.5,286047016.6,N
1510657255.3,286047017.1,N
1510657275.1,286047014.8,N
1510657295.9,286047015.0,Y
1510657315.7,286046999.9,P
1510657335.5,286047003.1,N
1510657355.4,286047002.2,N
1510657375.2,286047005.5,N
1510657395.0,286047001.3,N
1510657395.9,286047001.3,N
1510657415.8,286047008.4,N
1510657435.6,286047008.4,N
1510657455.4,286047004.5,N
1510657475.2,286047005.5,N
1510657495.1,286047005.8,N
1510657496.0,286047005.8,N
1510657515.8,286047005.8,N
1510657535.6,286047004.0,N
1510657555.5,286047004.5,N
1510657575.3,286047003.9,N
1510657595.1,286047005.1,N
1510657615.9,286047003.8,N
1510657635.7,286047001.6,N
1510657655.5,286047000.1,N
1510657675.4,286046995.6,N
1510657695.2,286046995.9,N
1510657715.0,286046997.6,N
1510657715.9,286046997.6,N
1510657735.8,286046991.8,N
1510657755.6,286046992.8,N
1510657775.4,286046994.4,N
1510657795.2,286046996.2,N
1510657815.1,286046997.9,N
1510657816.0,286046997.9,N
1510657835.8,286047001.1,N
1510657855.6,286046999.1,N
1510657875.5,286046998.6,N
1510657895.3,286046999.5,N
1510657915.1,286046999.2,N
1510657935.9,286046999.0,N
1510657955.7,286046999.0,N
1510657975.5,286046999.6,N
1510657995.4,286046997.4,N
1510658015.2,286046995.5,N
1510658035.0,286046996.1,N
1510658035.9,286046996.1,N
1510658055.8,286046990.4,N
1510658075.6,286046994.5,N
1510658095.4,286046993.7,N
1510658115.3,286046991.8,N
1510658135.1,286046990.2,N
1510658136.0,286046990.2,Y
1510658155.8,286046997.7,P
1510658175.7,286046995.4,P
1510658195.5,286046994.6,P
1510658215.3,286046995.1,Y
1510658235.2,286047001.8,P
1510658255.9,286047003.6,N
1510658275.7,286047001.8,N
1510658295.6,286047004.2,N
1510658315.4,286047002.2,N
1510658335.2,286047002.1,N
1510658355.0,286047003.4,N
1510658356.0,286047003.4,N
1510658375.8,286047001.8,N
1510658395.6,286047002.4,N
1510658415.4,286046996.8,N
1510658435.3,286046996.7,N
1510658455.1,286046994.8,N
1510658475.8,286046996.3,N
1510658495.7,286046993.4,N
1510658515.5,286046995.0,N
1510658535.3,286046997.6,N
1510658555.2,286046992.4,N
1510658575.9,286046990.5,N
1510658595.7,286046992.8,N
1510658615.6,286046989.0,N
1510658635.4,286046990.9,N
1510658655.2,286046991.4,N
1510658675.1,286046992.7,N
1510658676.0,286046992.7,N
1510658695.8,286046993.9,N
1510658715.6,286046994.6,N
1510658735.4,286046994.1,N
1510658755.3,286046997.7,N
1510658775.1,286046997.0,N
1510658795.8,286046994.7,N
1510658815.7,286046995.7,N
1510658835.5,286046996.3,N
1510658855.3,286046991.9,N
1510658875.2,286046991.2,N
1510658895.9,286046987.7,Y
1510658915.7,286046990.2,P
1510658935.6,286046994.8,N
1510658955.4,286046998.0,N
1510658975.2,286046996.8,N
1510658995.1,286046995.5,N
1510658996.0,286046995.5,N
1510659015.8,286046993.4,N
1510659035.6,286046991.8,Y
1510659055.5,286046998.9,P
1510659075.3,286046999.5,N
1510659095.1,286047000.1,N
1510659115.9,286047001.8,N
1510659135.7,286047001.5,N
1510659155.5,286047007.0,Y
1510659175.4,286047008.6,P
1510659195.2,286047010.1,N
1510659215.0,286047005.2,N
1510659215.9,286047005.2,N
1510659235.8,286047008.3,N
1510659255.6,286047003.5,N
1510659275.4,286047005.9,N
1510659295.3,286047005.8,N
1510659315.1,286047007.3,N
1510659316.0,286047007.3,N
1510659335.8,286047008.7,Y
1510659355.7,286047004.2,P
1510659375.5,286047004.0,P
1510659395.3,286047002.2,N
1510659415.1,286047001.7,N
1510659435.9,286047002.3,N
1510659455.7,286046998.9,N
1510659475.5,286046998.9,N
1510659495.4,286047003.8,N
1510659515.2,286047005.2,N
1510659535.0,286047007.1,Y
1510659535.9,286047007.1,P
1510659555.8,286047004.0,N
1510659575.6,286047003.3,N
1510659595.4,286047005.9,Y
1510659615.3,286046995.4,P
1510659635.1,286046993.5,N
1510659655.8,286046992.2,N
1510659675.7,286046989.0,N
1510659695.5,286046989.6,N
1510659715.3,286046983.7,Y
1510659735.2,286046987.3,P
1510659755.0,286046987.8,P
1510659755.9,286046987.8,P
1510659775.7,286046987.7,Y
1510659795.6,286046998.5,P
1510659815.4,286047000.7,N
1510659835.2,286047001.2,N
1510659855.1,286046997.2,N
1510659856.0,286046997.2,N
1510659875.8,286046994.5,N
1510659895.6,286046991.3,N
1510659915.5,286046992.5,N
1510659935.3,286046990.4,N
1510659955.1,286046991.2,N
1510659975.9,286046989.3,N
1510659995.7,286046990.1,N
1510660015.5,286046989.3,N
1510660035.4,286046988.9,N
1510660055.2,286046990.9,N
1510660075.0,286046986.9,Y
1510660075.9,286046986.9,P
1510660095.8,286046995.6,N
1510660115.6,286046998.9,N
1510660135.4,286047002.0,N
1510660155.2,286047001.5,N
1510660175.1,286046999.8,N
1510660176.0,286046999.8,N
1510660195.8,286047002.5,N
1510660215.6,286047004.4,N
1510660235.5,286047004.2,N
1510660255.3,286047003.9,N
1510660275.1,286047006.0,N
1510660295.9,286047001.6,N
1510660315.7,286047004.3,N
1510660335.5,286047004.0,N
1510660355.4,286046999.8,N
1510660375.2,286046998.5,N
1510660395.0,286046998.0,N
1510660395.9,286046998.0,N
1510660415.8,286046998.7,N
1510660435.6,286047000.4,N
1510660455.4,286047002.0,N
1510660475.2,286047003.1,N
1510660495.1,286047006.4,N
1510660496.0,286047006.4,N
1510660515.8,286047010.8,N
1510660535.6,286047008.8,N
1510660555.5,286047005.9,N
1510660575.3,286047007.3,N
1510660595.1,286047009.8,N
1510660615.9,286047009.8,N
1510660635.7,286047012.1,Y
1510660655.5,286047008.0,P
1510660675.4,286047011.2,P
1510660695.2,286047016.6,P
1510660715.0,286047015.0,Y
1510660716.0,286047015.0,P
1510660735.8,286047003.0,N
1510660755.6,286047009.0,N
1510660775.4,286047006.3,N
1510660795.3,286047009.1,N
